User: anonymous   Login
Location: Newark
(37.9800°N, 91.3000°W)
Time: 16:44:29
(UTC+00:00)
Language:

Oscar 19 - Orbit

View from above orbital plane
View from above orbital plane
View from above satellite
View from above satellite

Ground track
Ground track

The orbit data is extracted from the following two-line orbital elements,

1 20442U 90005G   19349.12403086 -.00000006  00000-0  14305-4 0  9990
2 20442  98.6700 290.9821 0011528 346.1974  13.8893 14.32940440562079
Epoch (UTC): 15 December 2019 02:58:36
Eccentricity: 0.0011528
inclination: 98.6700°
perigee height: 773 km
apogee height: 790 km
right ascension of ascending node: 290.9821°
argument of perigee: 346.1974°
revolutions per day: 14.32940440
mean anomaly at epoch: 13.8893°
orbit number at epoch: 56207

The dashed part of the orbit path shows where the satellite is in the earth's shadow,  

DLR